FW9150 Weather Reports


Display with metric or nautical units.
time (UTC)temp
F
wind
direction
speed
MPH
gust
MPH
rain 1hr
in
rain 24hr
in
rain mn
in
humidity
%
barometer
mb
20260506050433 43 45 0.0 0.0 0.00 0.28 0.19 94 1019.7
20260506044432 43 45 0.0 0.0 0.00 0.28 0.19 94 1019.7
20260506043432 43 45 0.0 0.0 0.00 0.28 0.19 94 1019.5
20260506042530 43 45 0.0 0.0 0.00 0.28 0.19 94 1019.7
20260506041532 43 45 0.0 0.0 0.00 0.28 0.19 94 1019.6
20260506034632 43 45 0.0 0.0 0.00 0.28 0.19 94 1019.2
20260506032632 43 45 0.0 0.0 0.00 0.30 0.19 94 1018.7
20260506031631 43 45 0.0 0.0 0.00 0.30 0.19 94 1018.7
20260506030631 43 45 0.0 0.0 0.00 0.30 0.19 94 1018.7
20260506025632 43 45 0.0 0.0 0.00 0.30 0.19 94 1018.6
20260506024634 43 45 0.0 0.0 0.00 0.30 0.19 94 1018.6
20260506023634 43 45 0.0 0.0 0.00 0.30 0.19 94 1018.5
20260506022632 43 45 0.0 0.0 0.00 0.30 0.19 94 1018.3
20260506021730 43 45 0.0 0.0 0.00 0.30 0.19 94 1018.2
20260506020731 43 45 0.0 0.0 0.00 0.30 0.19 94 1018.3
20260506015731 44 45 0.0 0.0 0.00 0.30 0.19 94 1018.3
20260506014830 44 67 0.0 0.0 0.00 0.30 0.19 94 1018.2
20260506013832 44 135 0.0 0.0 0.00 0.30 0.19 94 1018.3
20260506012931 44 90 0.0 0.0 0.00 0.30 0.19 94 1018.3
20260506011933 44 157 0.0 0.0 0.00 0.30 0.19 94 1018.3
20260506010933 44 157 0.0 0.0 0.00 0.30 0.19 94 1018.1
20260506005933 43 157 0.0 0.0 0.00 0.30 0.19 94 1018.2
20260506005031 43 157 0.0 0.0 0.00 0.30 0.19 94 1018.0
20260506004033 43 157 0.0 0.0 0.00 0.30 0.19 93 1018.1
20260506003033 43 157 0.0 1.0 0.00 0.31 0.19 93 1018.0
20260506002031 43 157 0.0 0.0 0.00 0.31 0.19 93 1018.1
20260506001032 44 137 1.0 4.0 0.00 0.31 0.19 93 1017.9
20260506000034 44 157 0.0 0.0 0.00 0.31 0.19 92 1017.9
20260505235031 44 157 0.0 0.0 0.00 0.31 0.19 92 1017.8
20260505233035 45 225 1.0 3.0 0.00 0.31 0.19 91 1017.6
20260505232032 45 135 0.0 0.0 0.00 0.31 0.19 91 1017.4
20260505225032 45 157 0.0 1.0 0.00 0.31 0.19 91 1017.4
20260505224031 45 157 0.0 0.0 0.00 0.31 0.19 92 1017.3
20260505223034 45 135 0.0 0.0 0.00 0.32 0.19 92 1017.4
20260505222032 45 180 0.0 0.0 0.00 0.32 0.19 92 1017.4
20260505221031 45 180 0.0 0.0 0.00 0.33 0.19 92 1017.4
20260505220033 45 103 0.0 0.0 0.00 0.35 0.19 92 1017.4
20260505215030 44 214 0.0 0.0 0.00 0.37 0.19 91 1017.4
20260505214047 45 225 0.0 0.0 0.00 0.39 0.19 91 1017.4
20260505211031 44 135 1.0 2.0 0.00 0.43 0.19 91 1017.6
20260505210035 44 135 0.0 0.0 0.00 0.44 0.19 91 1017.6
20260505205033 45 46 0.0 0.0 0.00 0.45 0.19 90 1017.5
20260505204031 45 80 0.0 0.0 0.00 0.47 0.19 90 1017.3
20260505203035 45 45 0.0 1.0 0.00 0.49 0.19 90 1017.5
20260505202032 45 112 0.0 1.0 0.00 0.51 0.19 89 1017.3
20260505201032 45 265 0.0 1.0 0.00 0.51 0.19 89 1017.2
20260505200034 45 147 0.0 0.0 0.00 0.51 0.19 89 1017.3
20260505195033 45 180 0.0 0.0 0.00 0.51 0.19 89 1017.4
20260505194131 45 174 2.0 3.0 0.00 0.51 0.19 89 1017.4
20260505193132 45 157 0.0 0.0 0.00 0.51 0.19 90 1017.3
20260505192132 45 180 0.0 1.0 0.00 0.51 0.19 89 1017.2
20260505191232 45 149 0.0 0.0 0.00 0.51 0.19 88 1017.2
20260505190331 46 202 0.0 1.0 0.00 0.51 0.19 87 1017.0
20260505185333 47 136 2.0 4.0 0.00 0.51 0.19 87 1016.8
20260505184333 46 136 0.0 0.0 0.00 0.51 0.19 87 1017.0
20260505183331 46 247 0.0 0.0 0.00 0.51 0.19 88 1016.7
20260505181331 45 180 0.0 0.0 0.00 0.51 0.19 87 1016.6
20260505175332 45 157 0.0 0.0 0.00 0.51 0.19 88 1016.4
20260505173432 46 157 0.0 1.0 0.00 0.51 0.19 83 1016.2
20260505172432 46 180 1.0 2.0 0.00 0.51 0.19 84 1016.1
20260505171432 47 180 0.0 0.0 0.00 0.51 0.19 87 1016.1
20260505170431 47 225 0.0 0.0 0.00 0.51 0.19 91 1016.2
20260505165431 47 225 0.0 0.0 0.00 0.51 0.19 93 1016.1
20260505164432 45 58 0.0 1.0 0.00 0.51 0.19 95 1015.9
20260505163432 42 180 0.0 0.0 0.00 0.52 0.19 94 1015.8
20260505162530 41 180 0.0 1.0 0.00 0.52 0.19 94 1015.7
20260505161534 41 180 0.0 0.0 0.00 0.52 0.19 95 1015.9
20260505160548 40 180 0.0 0.0 0.01 0.52 0.19 94 1015.9
20260505152731 38 225 0.0 0.0 0.05 0.56 0.19 94 1015.5
20260505151732 37 225 0.0 0.0 0.06 0.60 0.19 94 1015.3
20260505150830 37 225 0.0 0.0 0.05 0.61 0.18 94 1015.2
20260505123931 37 225 0.0 0.0 0.00 0.57 0.10 95 1014.7
20260505121933 37 225 0.0 0.0 0.00 0.57 0.10 94 1014.6
20260505121030 37 225 0.0 0.0 0.00 0.57 0.10 94 1014.7
20260505120034 37 225 0.0 0.0 0.00 0.57 0.10 95 1014.7
20260505115047 37 225 0.0 0.0 0.00 0.57 0.10 94 1014.6
20260505113034 37 225 0.0 0.0 0.00 0.57 0.10 94 1014.6
20260505111030 37 225 0.0 0.0 0.00 0.57 0.10 95 1014.7
20260505101032 37 225 0.0 0.0 0.02 0.57 0.10 95 1015.1
20260505100039 37 225 0.0 0.0 0.01 0.57 0.09 94 1015.1
20260505095031 37 225 0.0 0.0 0.02 0.57 0.09 95 1015.1
20260505094130 37 225 0.0 0.0 0.02 0.57 0.09 95 1015.1
20260505093131 37 225 0.0 0.0 0.02 0.57 0.09 95 1015.0
20260505092131 37 225 0.0 0.0 0.03 0.57 0.08 95 1015.3
20260505091132 37 225 0.0 0.0 0.03 0.56 0.08 95 1015.2
20260505090130 37 225 0.0 0.0 0.03 0.56 0.08 94 1015.3
20260505085131 37 225 0.0 0.0 0.03 0.55 0.07 94 1015.3
20260505084132 37 225 0.0 0.0 0.04 0.55 0.07 95 1015.4
20260505083130 38 225 0.0 0.0 0.04 0.55 0.07 94 1015.6
20260505081133 38 225 0.0 0.0 0.04 0.53 0.05 94 1015.8
20260505080133 38 225 0.0 0.0 0.05 0.53 0.05 95 1015.7
20260505074133 38 225 0.0 0.0 0.04 0.51 0.03 95 1015.8
20260505073133 39 225 0.0 0.0 0.05 0.51 0.02 95 1015.8
20260505072130 39 225 0.0 0.0 0.05 0.50 0.02 94 1015.8
20260505071131 39 225 0.0 0.0 0.05 0.49 0.01 95 1015.8
20260505070230 39 225 0.0 0.0 0.05 0.49 0.00 94 1015.8
20260505065329 39 225 0.0 0.0 0.05 0.48 0.48 95 1015.8
20260505064329 39 225 0.0 0.0 0.05 0.47 0.47 95 1015.8
20260505063329 38 225 0.0 0.0 0.06 0.47 0.47 94 1015.7
20260505062328 39 225 0.0 0.0 0.06 0.46 0.45 95 1015.9
20260505060330 39 225 0.0 0.0 0.06 0.44 0.44 94 1015.9
20260505055330 39 225 0.0 0.0 0.05 0.43 0.43 94 1015.8